Regional Weather Roundup
Issued by NWS Kansas City/Pleasant Hill, MO

Home | Current Version | Previous Version | Text Only | Print | Product List | Glossary On
Versions: 1 2 3 4 5 6 7 8 9 10 11 12 13 14 15 16 17 18 19 20 21 22 23 24 25 26 27
000
ASUS43 KEAX 290810
RWREAX

WEATHER ROUNDUP FOR EASTERN KANSAS AND NORTHWEST MISSOURI
NATIONAL WEATHER SERVICE KANSAS CITY/PLEASANT HILL MO
300 AM CDT THU SEP 29 2016

KSZ040-057-103>105-MOZ028-029-037-043-290900-
...KANSAS CITY METROPOLITAN AREA...

CITY           SKY/WX    TMP DP  RH WIND       PRES   REMARKS
K.C. INTL      PTCLDY    49  45  86 N6        30.29R
K.C. DOWNTOWN  CLEAR     54  47  77 NW5       30.28R
LEES SUMMIT    CLEAR     52  47  83 N8        30.28R
OLATHE - IXD   CLEAR     50  47  89 NW8       30.29S
OLATHE - OJC   CLEAR     51  47  86 N6        30.28S
LAWRENCE       CLEAR     48  48 100 NW8       30.30R

$$

MOZ001>008-011>017-020>025-030>033-038>040-044>046-053-054-290900-
...NORTHERN AND CENTRAL MISSOURI...

CITY           SKY/WX    TMP DP  RH WIND       PRES   REMARKS
ST. JOSEPH     CLEAR     50  46  86 N6        30.30S
MOSBY          SUNNY     46  46 100 CALM      30.28S
WHITEMAN AFB   NOT AVBL
CLINTON        CLEAR     50  48  93 CALM      30.25S
SEDALIA        CLEAR     51  48  89 N6        30.25R
WARSAW         NOT AVBL
CHILLICOTHE      N/A     53  49  86 N5        30.29R
KIRKSVILLE     CLEAR     50  47  89 NW6       30.25S

$$

MOZ041-047>049-056>058-063>065-088>090-097-290900-
...EASTERN AND SOUTHERN MISSOURI...

CITY           SKY/WX    TMP DP  RH WIND       PRES   REMARKS
ST. LOUIS INTL CLEAR     54  49  83 NW8       30.14R
SPIRIT OF STL  CLEAR     54  50  86 NW8       30.14S
COLUMBIA       CLEAR     51  49  92 N8        30.21S
JEFFERSON CITY CLEAR     53  49  86 VRB5      30.21R
ROLLA          CLEAR     50  48  93 N7        30.18R
OSAGE BEACH    CLEAR     51  49  92 N6        30.22R
SPRINGFIELD    CLEAR     48  44  86 NW7       30.22S
BRANSON        CLEAR     50  46  87 NW5       30.22S
JOPLIN         CLEAR     49  47  93 N5        30.25S
WEST PLAINS    CLEAR     52  46  80 N7        30.19S

$$

IAZ060-094-KSZ022-034>040-054-083-096-NEZ052-066-093-290900-
...KANSAS...SOUTHEAST NEBRASKA AND IOWA...

CITY           SKY/WX    TMP DP  RH WIND       PRES   REMARKS
TOPEKA         CLEAR     51  47  86 NW5       30.31R
MANHATTAN      CLEAR     49  46  90 CALM      30.33R
EMPORIA        CLEAR     49  47  93 NW3       30.30S
CHANUTE        CLEAR     50  48  93 N6        30.28R
WICHITA        PTCLDY    54  47  77 NE7       30.31R
OMAHA          CLEAR     47  43  86 N5        30.36R
LINCOLN        CLEAR     45  43  93 N7        30.38R
FALLS CITY     CLEAR     49  46  90 NW6       30.32R
LAMONI         CLEAR     50  48  93 NW8       30.30R
DES MOINES     CLEAR     54  50  86 N10       30.31R

$$





USA.gov is the U.S. government's official web portal to all federal, state and local government web resources and services.